Wind_Speed
6 7 8 8 9 8 5 6 7 9 9 9 9 9 8 7 7 6 6 6 6 6 6 6 6 5 5 5 5 6 7 8 8 8 8 7 7 7 8 8 9 9 9 9 9 9 8 8 8
3 4 5 6 9 4 3 3 5 7 8 8 8 8 8 8 7 6 5 5 5 5 5 5 5 4 4 4 5 6 6 7 7 7 7 6 6 6 6 6 6 7 8 8 8 8 7 7 6
3 2 2 3 4 1 3 3 2 4 5 5 6 6 6 6 6 5 4 4 4 4 4 4 4 4 4 5 5 6 6 6 7 7 6 5 5 5 4 4 5 5 6 7 7 7 7 6 5
5 3 2 1 2 3 3 4 4 3 2 2 3 3 3 4 3 3 3 3 3 3 4 4 4 4 5 5 5 6 6 6 6 7 6 5 5 4 4 4 5 5 6 7 7 7 7 6 6
8 6 4 4 5 4 3 4 4 3 2 1 1 1 2 3 3 3 3 4 4 4 4 3 3 4 4 5 5 6 6 6 6 6 6 6 5 5 5 6 6 6 7 7 8 8 8 8 7
12 10 8 8 8 6 5 5 5 5 4 2 1 0 1 2 3 3 4 4 5 5 5 4 4 4 5 5 6 7 7 7 7 8 8 7 7 7 7 8 8 8 8 9 9 9 10 10 10
16 14 13 12 11 9 6 5 6 5 5 3 2 1 2 2 3 4 5 6 6 7 7 7 8 8 8 9 9 10 10 10 11 11 11 10 10 10 11 11 11 11 11 11 11 11 11 12 12
19 17 15 14 13 12 8 7 6 4 4 3 3 3 4 5 6 7 8 9 10 10 11 12 12 13 13 14 14 14 14 15 15 15 15 15 15 15 15 15 15 15 15 15 15 15 14 15 15
20 19 18 18 16 14 11 9 7 6 5 5 5 6 7 9 10 11 12 13 14 15 15 16 17 18 19 19 19 19 19 19 19 19 19 19 19 19 19 20 20 20 19 19 19 18 18 18 18
21 21 22 21 18 15 13 11 9 8 7 8 9 10 11 13 14 14 15 16 17 18 19 19 21 21 22 22 22 22 22 22 22 23 23 23 23 24 24 25 25 25 24 24 24 24 23 22 22
21 23 23 21 20 17 16 13 12 10 10 11 12 13 14 16 16 17 18 19 20 20 21 22 23 23 24 23 24 24 24 24 25 25 26 26 27 27 28 29 30 30 29 29 29 29 28 27 26
23 23 23 22 21 19 18 17 15 14 15 15 15 16 17 19 20 21 22 22 23 23 24 23 24 24 25 25 25 26 26 27 27 28 28 29 30 30 31 32 34 34 35 35 34 34 33 32 31
26 24 24 24 23 21 21 20 19 19 19 17 18 19 20 22 23 24 25 26 26 26 26 26 26 26 26 26 27 27 27 27 28 29 30 30 31 32 33 34 35 37 39 39 39 38 38 36 35
29 27 26 26 26 24 23 23 23 22 21 21 22 23 24 26 27 27 28 29 29 29 29 28 28 28 27 27 27 27 27 28 28 29 30 30 31 31 32 33 34 36 38 39 40 41 41 39 38
31 29 29 30 29 27 26 27 28 25 25 25 26 27 28 29 29 30 30 31 31 31 31 30 30 30 28 28 27 27 27 27 28 29 29 30 30 31 31 31 32 34 36 38 38 40 41 41 41
32 32 30 34 31 30 28 29 33 29 29 29 30 30 31 31 31 31 31 32 32 32 32 32 32 31 29 29 28 28 27 27 27 27 28 28 29 29 30 31 31 33 34 36 37 38 39 41 41
31 31 31 34 34 32 31 35 35 33 33 34 33 33 32 32 31 31 31 32 32 32 32 32 33 32 31 31 30 28 27 26 25 25 25 26 26 27 28 29 31 32 34 35 37 38 39 40 40
26 29 31 33 36 35 35 37 38 38 37 36 35 33 32 31 30 30 31 32 33 33 33 33 34 34 33 32 29 27 25 24 23 23 23 23 24 25 26 28 29 31 33 35 36 38 39 40 41
24 26 28 33 36 35 37 38 39 38 37 36 33 31 30 30 29 30 31 33 34 35 36 36 36 34 33 31 28 26 24 22 22 20 20 20 21 22 24 26 28 30 32 34 36 38 40 40 41
19 20 22 27 32 33 35 35 35 35 34 32 30 29 29 30 31 31 33 35 36 38 37 36 35 34 32 29 27 24 22 21 19 19 19 20 20 22 23 25 27 29 32 34 36 38 39 40 41
12 14 17 21 25 26 28 27 29 30 30 30 30 30 30 31 32 33 35 37 38 37 36 35 34 33 31 29 26 23 21 20 20 20 21 21 21 23 24 25 27 29 31 33 35 37 39 40 41
10 15 16 18 18 18 21 17 24 26 27 28 28 29 30 31 33 35 36 36 35 34 33 33 33 33 31 28 25 23 22 22 23 23 23 23 24 24 25 26 28 29 31 32 34 36 38 39 40
12 14 14 15 15 15 17 13 17 24 23 24 25 25 25 26 28 29 30 31 31 30 31 33 34 33 30 28 26 26 25 25 25 25 25 25 25 25 26 26 28 30 31 32 33 34 36 38 39
11 12 12 12 11 10 13 10 16 19 19 20 20 20 21 23 25 26 28 29 30 31 33 34 34 33 31 30 29 29 29 29 29 28 27 27 26 26 27 27 28 30 31 32 33 33 34 36 37
11 10 9 9 8 10 15 12 16 16 17 18 19 20 21 23 25 28 30 31 32 34 35 36 35 35 34 34 34 34 33 33 32 31 29 29 28 28 28 28 29 30 31 32 33 33 33 34 35
11 11 10 11 11 12 17 16 18 17 18 19 21 22 23 24 27 29 31 33 34 35 37 37 38 38 39 38 38 37 37 36 34 33 32 31 30 30 29 29 29 30 31 32 33 33 33 33 33
10 11 12 13 14 15 14 20 20 20 21 22 23 25 26 28 30 32 33 35 37 38 39 40 41 42 42 42 41 41 40 38 37 36 34 34 32 31 30 30 29 30 31 32 33 33 32 31 32
10 11 11 12 13 14 15 18 23 21 22 24 26 29 31 34 35 36 38 39 41 42 44 45 45 46 46 46 45 44 43 41 40 39 37 35 34 32 31 30 30 30 31 31 32 32 32 31 31
12 13 13 15 17 18 18 22 26 26 28 30 32 35 37 39 40 42 43 44 45 46 47 48 48 49 50 49 49 48 47 46 44 42 40 38 36 34 33 32 31 31 31 32 32 32 31 30 29
15 16 17 19 21 23 24 29 28 30 32 34 36 38 40 42 44 45 46 48 49 49 51 51 52 53 54 54 55 54 54 52 49 47 45 42 39 37 35 33 32 32 31 31 32 32 31 29 28
Wind_Direction
99 87 76 68 65 69 82 111 118 117 116 113 108 104 102 99 94 92 84 80 78 73 66 63 61 56 45 30 19 17 24 32 37 39 42 44 47 51 52 51 48 45 43 42 41 40 38 38 38
113 94 77 64 67 48 37 87 115 120 119 115 110 106 102 95 89 77 65 54 49 48 45 45 42 33 18 3 357 358 5 14 19 22 25 28 30 34 38 40 37 33 31 31 31 31 27 23 24
171 141 86 60 71 31 358 12 50 98 110 113 108 104 101 95 85 67 49 29 19 24 24 22 14 0 349 341 340 344 350 359 4 6 8 7 8 10 13 14 14 13 14 14 14 13 11 5 358
218 212 233 296 283 306 322 335 343 1 47 83 93 90 90 84 72 51 25 356 343 351 359 359 353 339 331 327 327 334 340 346 350 352 351 347 343 341 340 341 342 345 348 350 352 352 350 346 337
233 231 237 249 258 270 291 312 325 330 316 334 49 54 60 61 42 27 1 336 326 326 328 329 328 323 318 315 315 319 325 330 334 334 332 327 319 312 307 311 316 320 324 327 330 332 331 327 320
238 236 233 237 251 253 263 283 304 303 295 283 291 16 15 20 13 7 348 335 329 325 321 313 309 307 307 309 311 312 314 316 317 317 315 312 306 300 296 294 295 301 306 308 310 312 314 313 309
238 236 236 240 247 245 247 266 284 291 283 276 288 303 320 332 341 338 330 326 324 320 317 313 306 300 299 302 305 307 307 307 307 306 304 302 300 296 293 290 288 289 293 295 297 298 299 301 299
241 240 242 244 245 246 246 253 261 267 271 271 281 301 313 321 325 325 319 316 314 310 306 303 300 296 294 296 299 300 301 302 301 300 299 297 295 293 291 289 287 287 287 288 288 289 290 292 292
244 242 241 242 241 242 240 242 246 251 264 273 287 301 308 312 313 314 313 310 306 303 300 298 297 295 293 293 294 295 295 295 294 294 293 293 292 290 289 288 286 285 284 284 284 283 283 284 285
242 240 241 244 244 242 239 241 241 245 256 270 285 295 301 305 308 311 312 309 305 303 300 298 296 293 292 291 291 291 290 290 289 288 287 287 287 286 286 285 284 282 281 281 281 280 279 279 280
242 242 246 248 247 244 243 242 242 248 260 270 285 294 301 304 307 310 309 307 304 303 301 299 296 295 293 292 290 291 289 288 288 287 286 284 283 282 282 282 281 280 278 278 277 277 277 276 276
242 244 246 247 247 247 247 247 247 251 260 272 283 292 297 301 304 305 304 303 302 301 300 298 296 296 295 293 292 292 291 289 288 287 286 284 282 281 280 280 279 278 277 275 274 274 274 273 273
240 241 244 246 247 248 250 251 253 257 264 273 281 287 292 295 298 299 299 299 299 298 297 295 296 297 297 295 293 292 291 290 288 287 286 286 284 282 280 280 279 277 276 274 274 273 272 271 271
240 241 242 245 247 249 251 255 257 260 266 273 278 283 287 290 292 293 293 294 294 294 295 294 295 297 297 296 293 291 290 289 288 287 287 286 285 284 283 281 280 280 279 277 274 273 274 273 271
239 239 241 243 245 249 253 258 259 263 267 270 274 278 281 284 285 286 287 289 290 292 293 294 297 298 298 297 294 293 292 289 288 287 287 287 287 285 284 284 282 281 281 280 278 277 273 272 272
239 238 239 243 245 248 251 255 261 265 267 269 272 274 276 278 279 281 282 285 287 289 292 295 297 298 299 298 296 294 292 292 290 290 290 290 290 288 287 287 285 284 283 282 281 280 277 275 274
240 237 237 245 246 248 250 253 263 265 267 269 271 273 274 275 275 276 278 281 283 288 291 294 297 297 299 299 298 296 295 293 292 292 293 294 294 294 293 291 289 287 285 283 283 282 280 278 276
241 239 241 244 248 250 252 256 261 265 267 270 271 272 272 271 271 272 274 278 282 286 289 292 295 296 298 297 295 296 296 294 294 295 295 296 297 298 298 297 295 292 289 286 283 281 280 279 278
246 244 244 247 251 252 255 258 262 266 268 270 271 271 269 267 266 268 271 275 280 284 287 290 293 293 295 295 295 296 295 294 296 296 296 297 299 301 301 302 300 295 292 288 285 282 279 279 277
251 249 251 254 254 255 258 262 266 269 270 271 270 268 266 265 264 266 270 274 278 282 284 287 289 290 292 293 293 293 293 294 296 298 299 301 303 305 305 306 305 301 297 292 287 283 280 278 277
261 255 255 258 263 266 268 273 273 271 269 268 267 265 265 265 266 268 270 273 276 279 281 282 285 288 289 290 291 291 292 293 296 298 299 301 305 307 307 307 307 306 302 298 292 286 281 278 276
280 273 272 273 274 274 274 272 277 275 271 269 268 267 266 266 268 270 272 273 273 273 275 279 283 286 287 288 289 290 291 292 292 293 296 299 303 305 306 308 309 309 306 302 297 291 284 279 275
276 282 283 283 282 278 279 272 267 276 275 275 274 273 272 271 271 271 271 271 270 270 275 279 282 284 285 285 286 287 288 288 288 289 291 294 298 301 303 306 307 309 309 305 301 295 288 282 277
288 294 300 303 301 289 278 272 263 279 283 283 282 280 278 275 274 273 271 272 273 275 277 279 280 282 282 283 284 284 285 285 285 286 287 289 293 296 300 304 307 309 310 309 305 300 293 285 279
297 303 310 309 301 284 287 284 269 286 287 288 287 284 280 277 275 273 273 274 275 277 278 278 279 280 280 281 281 282 282 282 282 283 284 285 288 292 296 301 305 309 311 312 310 305 299 291 283
293 291 286 279 276 278 293 288 288 290 289 288 287 285 282 279 276 275 274 274 275 276 276 277 277 278 279 280 280 280 280 280 280 281 283 284 286 288 292 297 302 306 309 311 311 308 303 296 287
299 294 286 284 288 288 284 287 290 288 289 288 285 283 281 280 278 277 275 274 274 274 274 275 275 276 277 278 279 279 279 280 280 281 282 284 285 287 290 294 299 303 306 309 310 308 304 299 291
307 303 298 292 287 284 286 292 290 290 286 284 282 281 280 279 278 277 276 275 274 274 274 274 274 275 276 277 278 279 279 280 280 280 282 283 284 286 288 291 295 299 303 306 309 308 305 301 294
315 310 303 296 291 291 287 281 286 290 288 286 284 282 281 280 279 278 277 276 276 275 274 274 274 274 275 275 276 278 279 279 279 280 280 281 282 284 287 288 291 295 300 303 306 307 306 302 296
317 315 310 305 301 298 297 290 296 292 290 288 287 285 284 282 281 279 278 278 277 277 276 275 275 275 276 276 276 277 278 278 278 279 279 279 280 282 284 286 287 290 295 300 303 305 304 302 297
Height
5932 5932 5933 5934 5935 5937 5936 5935 5934 5933 5933 5932 5931 5931 5931 5931 5932 5934 5932 5929 5929 5929 5928 5927 5926 5926 5926 5925 5924 5923 5922 5920 5919 5918 5917 5916 5915 5913 5912 5912 5911 5910 5908 5907 5906 5905 5904 5902 5901
5933 5933 5935 5936 5938 5938 5937 5936 5935 5934 5934 5933 5932 5932 5931 5931 5931 5931 5930 5930 5929 5928 5928 5927 5927 5926 5926 5925 5924 5923 5922 5920 5919 5918 5917 5916 5915 5914 5913 5912 5911 5910 5909 5908 5906 5905 5904 5902 5901
5933 5934 5936 5937 5938 5938 5937 5936 5935 5935 5934 5934 5933 5932 5932 5931 5931 5931 5930 5930 5929 5928 5927 5927 5926 5926 5925 5925 5924 5923 5921 5920 5919 5918 5917 5916 5915 5914 5913 5912 5911 5910 5909 5908 5906 5905 5904 5902 5901
5933 5935 5936 5938 5937 5937 5936 5936 5935 5934 5934 5933 5933 5932 5932 5931 5931 5930 5930 5929 5928 5927 5926 5926 5925 5925 5924 5923 5923 5921 5920 5919 5918 5917 5916 5915 5914 5913 5912 5911 5910 5909 5908 5907 5906 5904 5903 5902 5901
5933 5935 5936 5937 5936 5936 5936 5935 5935 5935 5934 5933 5932 5932 5931 5931 5930 5930 5929 5928 5927 5926 5925 5924 5924 5924 5923 5922 5921 5920 5919 5918 5917 5916 5915 5914 5913 5912 5911 5910 5909 5908 5907 5906 5905 5904 5902 5901 5900
5932 5934 5936 5937 5936 5936 5935 5935 5935 5934 5933 5932 5932 5931 5930 5930 5929 5929 5928 5927 5926 5925 5924 5923 5923 5922 5921 5920 5919 5918 5917 5916 5915 5914 5913 5912 5911 5910 5909 5908 5907 5907 5906 5905 5904 5902 5901 5900 5899
5930 5932 5933 5934 5934 5934 5935 5934 5934 5933 5933 5932 5931 5930 5929 5929 5928 5927 5927 5926 5925 5924 5923 5922 5921 5920 5919 5918 5917 5916 5915 5914 5913 5912 5911 5910 5909 5908 5907 5906 5905 5904 5903 5902 5901 5900 5899 5898 5897
5927 5930 5931 5932 5932 5933 5933 5933 5933 5932 5932 5931 5930 5929 5928 5928 5927 5926 5925 5924 5923 5922 5921 5920 5919 5918 5917 5916 5915 5914 5913 5912 5911 5910 5908 5907 5906 5905 5904 5903 5902 5901 5900 5899 5898 5897 5897 5896 5895
5924 5928 5929 5929 5930 5930 5931 5931 5931 5931 5931 5930 5929 5928 5928 5926 5925 5924 5923 5922 5921 5920 5919 5918 5917 5916 5915 5913 5912 5911 5910 5908 5907 5906 5905 5903 5902 5901 5900 5899 5898 5897 5896 5896 5895 5894 5893 5892 5891
5921 5924 5925 5925 5926 5927 5928 5929 5929 5930 5929 5929 5928 5927 5926 5924 5923 5922 5921 5919 5918 5917 5916 5915 5913 5912 5911 5910 5908 5907 5906 5904 5903 5902 5900 5899 5897 5896 5895 5894 5893 5892 5891 5891 5890 5889 5888 5887 5887
5917 5919 5919 5921 5922 5924 5925 5926 5927 5927 5927 5926 5926 5924 5923 5922 5920 5919 5918 5917 5915 5914 5912 5911 5909 5908 5907 5905 5904 5902 5901 5900 5898 5896 5895 5894 5892 5891 5889 5889 5888 5887 5886 5885 5884 5884 5883 5882 5881
5914 5914 5915 5917 5918 5920 5921 5922 5923 5924 5924 5923 5923 5922 5920 5919 5917 5916 5915 5913 5912 5910 5909 5907 5905 5904 5902 5901 5899 5897 5896 5894 5892 5891 5889 5888 5886 5885 5884 5883 5881 5880 5879 5879 5877 5877 5876 5876 5875
5909 5910 5911 5912 5914 5916 5917 5918 5919 5919 5920 5920 5919 5918 5917 5915 5914 5913 5911 5910 5908 5906 5904 5903 5901 5899 5897 5895 5893 5892 5890 5888 5886 5884 5883 5882 5880 5879 5877 5876 5875 5874 5872 5871 5870 5869 5868 5868 5868
5904 5906 5907 5908 5909 5911 5913 5914 5914 5915 5915 5915 5915 5914 5913 5911 5910 5909 5907 5905 5903 5901 5900 5897 5895 5893 5892 5890 5888 5886 5884 5882 5879 5878 5876 5875 5873 5872 5870 5869 5868 5866 5864 5863 5862 5861 5860 5860 5859
5898 5901 5903 5903 5905 5907 5909 5910 5909 5910 5910 5910 5910 5909 5908 5907 5905 5904 5902 5900 5898 5896 5894 5892 5890 5888 5885 5884 5881 5879 5877 5875 5873 5871 5869 5868 5866 5864 5863 5862 5861 5859 5857 5855 5854 5853 5852 5851 5851
5893 5897 5899 5897 5900 5902 5906 5906 5902 5904 5905 5905 5904 5904 5903 5901 5900 5898 5896 5894 5892 5890 5888 5886 5884 5881 5879 5878 5875 5873 5871 5869 5866 5864 5862 5860 5859 5857 5855 5854 5853 5851 5849 5848 5846 5845 5843 5842 5841
5888 5891 5893 5892 5894 5897 5900 5898 5896 5898 5898 5898 5898 5897 5897 5896 5894 5893 5891 5889 5886 5884 5882 5880 5877 5875 5873 5871 5869 5866 5864 5862 5860 5858 5856 5854 5852 5850 5848 5846 5845 5843 5841 5839 5838 5836 5834 5833 5832
5883 5885 5886 5887 5887 5890 5892 5891 5890 5890 5891 5891 5891 5891 5890 5889 5888 5887 5885 5883 5881 5878 5876 5873 5871 5869 5867 5865 5862 5859 5858 5856 5854 5852 5850 5847 5845 5843 5841 5838 5837 5835 5833 5831 5829 5827 5825 5824 5823
5877 5879 5881 5880 5881 5884 5884 5884 5884 5883 5884 5884 5884 5884 5884 5883 5882 5880 5879 5877 5874 5871 5869 5867 5865 5862 5860 5858 5856 5853 5851 5849 5848 5845 5843 5841 5839 5836 5834 5832 5829 5827 5824 5823 5820 5818 5817 5815 5813
5873 5875 5876 5876 5876 5877 5877 5877 5877 5877 5877 5877 5877 5877 5877 5876 5875 5874 5872 5870 5867 5864 5861 5859 5857 5855 5854 5852 5849 5847 5845 5843 5841 5839 5837 5835 5832 5830 5827 5825 5822 5819 5816 5814 5811 5809 5807 5806 5804
5871 5872 5872 5871 5871 5871 5872 5873 5871 5870 5870 5870 5870 5869 5869 5868 5867 5866 5864 5861 5859 5857 5854 5853 5850 5848 5847 5845 5843 5841 5839 5837 5835 5832 5830 5828 5825 5823 5820 5818 5814 5811 5808 5805 5802 5799 5797 5796 5795
5869 5867 5867 5867 5867 5869 5868 5870 5866 5863 5863 5862 5862 5862 5861 5860 5859 5857 5855 5853 5850 5848 5847 5845 5843 5842 5840 5838 5836 5834 5832 5830 5828 5826 5823 5821 5818 5816 5813 5810 5807 5803 5800 5796 5793 5790 5787 5786 5785
5865 5864 5863 5863 5862 5863 5862 5864 5864 5857 5856 5856 5855 5855 5854 5853 5851 5849 5847 5845 5843 5840 5839 5838 5836 5834 5832 5830 5829 5827 5825 5823 5821 5819 5817 5814 5811 5808 5806 5803 5799 5795 5792 5788 5784 5781 5778 5776 5775
5861 5861 5860 5860 5860 5860 5858 5859 5859 5853 5851 5850 5849 5848 5847 5846 5844 5842 5840 5838 5836 5834 5832 5830 5828 5826 5825 5823 5821 5820 5818 5816 5814 5812 5809 5807 5804 5801 5798 5795 5791 5787 5783 5779 5775 5772 5769 5766 5765
5859 5860 5861 5861 5861 5859 5855 5854 5853 5849 5847 5845 5844 5843 5841 5840 5838 5836 5833 5832 5829 5827 5825 5822 5820 5818 5816 5815 5813 5811 5809 5808 5806 5803 5801 5799 5796 5793 5790 5787 5783 5779 5775 5771 5767 5763 5759 5757 5755
5857 5857 5858 5858 5858 5856 5852 5850 5847 5845 5843 5841 5839 5837 5835 5834 5831 5829 5827 5824 5821 5819 5816 5814 5811 5809 5807 5806 5804 5802 5800 5798 5796 5794 5792 5790 5787 5785 5782 5778 5775 5771 5767 5763 5759 5755 5751 5748 5746
5855 5854 5854 5853 5851 5851 5850 5846 5843 5840 5838 5836 5833 5831 5829 5826 5824 5821 5819 5816 5813 5810 5807 5805 5802 5800 5797 5795 5794 5792 5790 5787 5785 5783 5781 5779 5777 5775 5772 5769 5766 5762 5759 5755 5751 5747 5743 5740 5737
5853 5851 5850 5849 5848 5847 5846 5843 5839 5835 5832 5830 5827 5824 5821 5818 5815 5812 5809 5806 5803 5800 5797 5794 5791 5788 5786 5783 5781 5779 5777 5776 5774 5772 5770 5768 5766 5764 5762 5759 5756 5753 5750 5746 5742 5739 5735 5732 5729
5851 5849 5847 5845 5843 5842 5841 5841 5833 5829 5826 5822 5819 5815 5812 5808 5805 5801 5798 5794 5791 5788 5784 5781 5778 5775 5772 5769 5767 5765 5763 5762 5760 5759 5758 5756 5755 5753 5751 5749 5747 5744 5741 5738 5734 5731 5727 5724 5722
5847 5845 5843 5841 5838 5835 5833 5832 5827 5822 5818 5814 5810 5806 5802 5798 5793 5789 5785 5781 5777 5774 5770 5766 5763 5760 5757 5754 5751 5749 5748 5746 5745 5745 5744 5743 5742 5741 5740 5738 5736 5734 5732 5729 5726 5723 5720 5717 5714